Location: Cuiry
(49.3858°N, 3.7708°E)
Time: 22:30:25
(UTC+00:00)

SL-8 Rocket - Pass Details

Date: 12 January 2026
Orbit: 955 x 990 km, 82.9° (Epoch: 7 February)

Event Time Altitude Azimuth Distance (km) Brightness Sun altitude
Rises 16:50:26 0° 354° (N) 3,684 6.8 -6.6°
Reaches altitude 10° 16:53:08 10° 2° (N) 2,727 6.1 -7.0°
Maximum altitude 16:59:01 42° 72° (ENE) 1,361 4.3 -7.9°
Drops below altitude 10° 17:04:48 10° 142° (SE) 2,690 6.2 -8.7°
Sets 17:07:26 0° 149° (SSE) 3,628 6.9 -9.1°
